Jackson, TN

8:18 AM CST on November 19, 2019 (GMT -0600)
McKellar-Sipes Regional

Weather History for KMKL - September, 2019

Change the Weather History Date:

Saturday, September 7, 2019

  Actual Average Record
Temperature  
Mean Temperature 76 °F 75 °F  
Max Temperature 88 °F 87 °F 100 °F (1990)
Min Temperature 63 °F 62 °F 44 °F (1988)
Degree Days  
Heating Degree Days 0 0  
Month to date heating degree days 0 0  
Since 1 July heating degree days 0 0  
Cooling Degree Days 10 10  
Month to date cooling degree days 87 74  
Year to date cooling degree days 1548 1497  
Growing Degree Days 26 (Base 50)    
Moisture  
Dew Point 66 °F    
Average Humidity 73    
Maximum Humidity 100    
Minimum Humidity 40    
Precipitation  
Precipitation 0.00 in 0.10 in 1.06 in (1973)
Month to date precipitation 0.00 0.65  
Year to date precipitation 46.71 36.52  
Sea Level Pressure  
Sea Level Pressure 30.00 in    
Wind  
Wind Speed 4 mph ()    
Max Wind Speed 10 mph    
Max Gust Speed 15 mph    
Visibility 10.0 miles    
Events      
T = Trace of Precipitation, MM = Missing Value Source: Averaged Metar Reports

Daily Weather History Graph

Daily Weather History Graph

Search for Another Location

Airport or City:

Astronomy

Sep. 07, 2019 Rise Set
Actual Time 6:32 AM CDT 7:14 PM CDT
Civil Twilight 6:06 AM CDT 7:40 PM CDT
Nautical Twilight 5:35 AM CDT 8:10 PM CDT
Astronomical Twilight 5:04 AM CDT 8:41 PM CDT
Moon 3:20 PM CDT (9/7) 12:33 AM CDT (9/7)
Length of Visible Light 13h 34m
Length of Day
12h 42m
Waxing Gibbous, 66% of the Moon is Illuminated
Sep 7
Waxing Gibbous
Sep 13
Full
Sep 21
Last Quarter
Sep 28
New
Oct 5
First Quarter

Hourly Weather History & Observations

Time (CDT) Temp. Heat Index Dew Point Humidity Pressure Visibility Wind Dir Wind Speed Gust Speed Precip Events Conditions
12:53 AM 75.9 °F - 72.0 °F 87% 29.95 in 10.0 mi NNW 3.5 mph - N/A   Clear
1:53 AM 73.9 °F - 71.1 °F 91% 29.96 in 10.0 mi Calm Calm - N/A   Clear
2:53 AM 73.9 °F - 72.0 °F 93% 29.96 in 10.0 mi NNE 5.8 mph - N/A   Clear
3:53 AM 73.0 °F - 71.1 °F 93% 29.98 in 10.0 mi North 5.8 mph - N/A   Clear
4:53 AM 73.0 °F - 70.0 °F 90% 29.99 in 10.0 mi NNE 6.9 mph - N/A   Clear
5:53 AM 72.0 °F - 69.1 °F 91% 30.00 in 10.0 mi NE 6.9 mph - N/A   Mostly Cloudy
6:53 AM 71.1 °F - 66.9 °F 87% 30.02 in 10.0 mi NE 5.8 mph - N/A   Scattered Clouds
7:53 AM 73.0 °F - 66.0 °F 79% 30.04 in 10.0 mi ENE 6.9 mph - N/A   Partly Cloudy
8:53 AM 75.0 °F - 63.0 °F 66% 30.04 in 10.0 mi NE 8.1 mph - N/A   Mostly Cloudy
9:53 AM 78.1 °F - 64.9 °F 64% 30.04 in 10.0 mi NE 8.1 mph - N/A   Mostly Cloudy
10:53 AM 80.1 °F 81.7 °F 64.0 °F 58% 30.04 in 10.0 mi NNE 4.6 mph - N/A   Overcast
11:53 AM 82.9 °F 85.0 °F 66.0 °F 56% 30.03 in 10.0 mi Variable 4.6 mph - N/A   Clear
12:53 PM 84.9 °F 86.6 °F 64.9 °F 51% 30.01 in 10.0 mi NW 8.1 mph - N/A   Clear
1:53 PM 87.1 °F 88.3 °F 64.0 °F 46% 30.00 in 10.0 mi North 9.2 mph - N/A   Clear
2:53 PM 87.1 °F 88.3 °F 64.0 °F 46% 29.98 in 10.0 mi North 8.1 mph - N/A   Clear
3:53 PM 87.1 °F 86.7 °F 60.1 °F 40% 29.97 in 10.0 mi WNW 5.8 mph - N/A   Clear
4:53 PM 87.1 °F 86.7 °F 60.1 °F 40% 29.96 in 10.0 mi NNW 5.8 mph - N/A   Clear
5:53 PM 86.0 °F 86.8 °F 63.0 °F 46% 29.96 in 10.0 mi NW 5.8 mph - N/A   Clear
6:53 PM 81.0 °F 82.7 °F 64.9 °F 58% 29.97 in 10.0 mi North 3.5 mph - N/A   Clear
7:53 PM 71.1 °F - 66.0 °F 84% 29.98 in 10.0 mi Calm Calm - N/A   Clear
8:53 PM 69.1 °F - 66.0 °F 90% 29.99 in 10.0 mi Calm Calm - N/A   Clear
9:53 PM 66.0 °F - 64.9 °F 96% 30.00 in 10.0 mi South 3.5 mph - N/A   Clear
10:53 PM 64.9 °F - 64.0 °F 97% 30.01 in 10.0 mi Calm Calm - N/A   Clear
11:53 PM 64.0 °F - 62.1 °F 93% 30.01 in 9.0 mi Calm Calm - N/A   Clear